Hot Springs, VA

10:19 AM EST on January 20, 2018 (GMT -0500)
Ingalls

Weather History for KHSP - March, 2013

Change the Weather History Date:

Wednesday, March 20, 2013

  Actual Average Record
Temperature  
Mean Temperature 30 °F -  
Max Temperature 39 °F 44 °F 69 °F (2012)
Min Temperature 21 °F 27 °F 21 °F (1999)
Degree Days  
Heating Degree Days 35    
Moisture  
Dew Point 10 °F    
Average Humidity 46    
Maximum Humidity 100    
Minimum Humidity 30    
Precipitation  
Precipitation 0.00 in - - ()
Sea Level Pressure  
Sea Level Pressure 29.85 in    
Wind  
Wind Speed 18 mph (West)    
Max Wind Speed 29 mph    
Max Gust Speed 39 mph    
Visibility 10 miles    
Events Snow    
Averages and records for this station are not official NWS values.
T = Trace of Precipitation, MM = Missing Value Source: NWS Daily Summary

Daily Weather History Graph

Daily Weather History Graph

Search for Another Location

Airport or City:

Trip Planner

Search our weather history database for the weather conditions in past years. The results will help you decide how hot, cold, wet, or windy it might be!

Date:

Astronomy

Mar. 20, 2013 Rise Set
Actual Time 7:22 AM EDT 7:31 PM EDT
Civil Twilight 6:56 AM EDT 7:57 PM EDT
Nautical Twilight 6:25 AM EDT 8:28 PM EDT
Astronomical Twilight 5:54 AM EDT 8:59 PM EDT
Moon 1:10 PM EDT 2:55 AM EDT
Length of Visible Light 13h 01m
Length of Day
12h 08m
First Quarter, 59% of the Moon is Illuminated
Mar 20
First Quarter
Mar 27
Full
Apr 3
Last Quarter
Apr 10
New
Apr 18
First Quarter

Hourly Weather History & Observations

Time (EDT) Temp. Windchill Dew Point Humidity Pressure Visibility Wind Dir Wind Speed Gust Speed Precip Events Conditions
12:15 AM 28.4 °F 13.5 °F 3.2 °F 34% 29.92 in 10.0 mi West 26.5 mph 36.8 mph N/A   Clear
12:35 AM 28.4 °F 15.1 °F 3.2 °F 34% 29.91 in 10.0 mi West 20.7 mph 33.4 mph N/A   Clear
12:55 AM 28.4 °F 14.7 °F 3.2 °F 34% 29.91 in 10.0 mi West 21.9 mph 33.4 mph N/A   Clear
1:15 AM 26.6 °F 12.4 °F 5.0 °F 40% 29.92 in 10.0 mi West 21.9 mph 29.9 mph N/A   Clear
1:35 AM 26.6 °F 13.8 °F 3.2 °F 37% 29.93 in 10.0 mi WNW 17.3 mph 26.5 mph N/A   Clear
1:55 AM 26.6 °F 14.3 °F 5.0 °F 40% 29.93 in 10.0 mi WNW 16.1 mph 27.6 mph N/A   Clear
2:15 AM 26.6 °F 13.4 °F 5.0 °F 40% 29.93 in 10.0 mi West 18.4 mph 31.1 mph N/A   Clear
2:35 AM 26.6 °F 14.7 °F 5.0 °F 40% 29.93 in 10.0 mi WNW 15.0 mph 31.1 mph N/A   Clear
2:55 AM 26.6 °F 14.7 °F 6.8 °F 43% 29.93 in 10.0 mi West 15.0 mph 24.2 mph N/A   Clear
3:15 AM 24.8 °F 11.1 °F 6.8 °F 46% 29.92 in 10.0 mi West 18.4 mph 27.6 mph N/A   Clear
3:35 AM 24.8 °F 12.9 °F 6.8 °F 46% 29.92 in 10.0 mi WNW 13.8 mph 25.3 mph N/A   Clear
3:55 AM 24.8 °F 11.9 °F 6.8 °F 46% 29.91 in 10.0 mi WNW 16.1 mph 26.5 mph N/A   Clear
4:15 AM 24.8 °F 11.5 °F 6.8 °F 46% 29.90 in 10.0 mi WNW 17.3 mph 28.8 mph N/A   Clear
4:35 AM 24.8 °F 12.9 °F 6.8 °F 46% 29.90 in 10.0 mi WNW 13.8 mph 24.2 mph N/A   Clear
4:55 AM 24.8 °F 13.4 °F 6.8 °F 46% 29.90 in 10.0 mi West 12.7 mph 23.0 mph N/A   Clear
5:15 AM 23.0 °F 10.1 °F 6.8 °F 50% 29.91 in 10.0 mi West 15.0 mph 24.2 mph N/A   Clear
5:35 AM 23.0 °F 10.6 °F 6.8 °F 50% 29.91 in 10.0 mi WNW 13.8 mph 23.0 mph N/A   Clear
5:55 AM 23.0 °F 9.2 °F 6.8 °F 50% 29.90 in 10.0 mi West 17.3 mph 21.9 mph N/A   Clear
6:15 AM 23.0 °F 10.6 °F 6.8 °F 50% 29.90 in 10.0 mi West 13.8 mph 21.9 mph N/A   Clear
6:35 AM 23.0 °F 9.6 °F 6.8 °F 50% 29.91 in 10.0 mi West 16.1 mph 23.0 mph N/A   Clear
6:55 AM 23.0 °F 9.6 °F 8.6 °F 54% 29.91 in 10.0 mi West 16.1 mph 23.0 mph N/A   Clear
7:15 AM 21.2 °F 7.3 °F 8.6 °F 58% 29.90 in 10.0 mi West 16.1 mph 23.0 mph N/A   Clear
7:35 AM 23.0 °F 9.2 °F 8.6 °F 54% 29.91 in 10.0 mi West 17.3 mph 24.2 mph N/A   Clear
7:55 AM 23.0 °F 8.7 °F 8.6 °F 54% 29.91 in 10.0 mi West 18.4 mph - N/A   Clear
8:15 AM 23.0 °F 9.6 °F 8.6 °F 54% 29.91 in 10.0 mi West 16.1 mph 21.9 mph N/A   Clear
8:35 AM 23.0 °F 10.1 °F 8.6 °F 54% 29.92 in 10.0 mi West 15.0 mph 23.0 mph N/A   Clear
8:55 AM 24.8 °F 12.9 °F 10.4 °F 54% 29.93 in 10.0 mi West 13.8 mph 25.3 mph N/A   Clear
9:15 AM 24.8 °F 11.5 °F 10.4 °F 54% 29.93 in 10.0 mi West 17.3 mph 25.3 mph N/A   Clear
9:35 AM 24.8 °F 11.5 °F 10.4 °F 54% 29.93 in 10.0 mi West 17.3 mph 24.2 mph N/A   Clear
9:55 AM 26.6 °F 15.7 °F 8.6 °F 47% 29.94 in 10.0 mi WNW 12.7 mph 23.0 mph N/A   Clear
10:15 AM 26.6 °F 15.2 °F 10.4 °F 51% 29.94 in 10.0 mi West 13.8 mph - N/A   Clear
10:55 AM 28.4 °F 19.1 °F 10.4 °F 47% 29.93 in 10.0 mi West 10.4 mph 25.3 mph N/A   Clear
11:35 AM 30.2 °F 21.9 °F 10.4 °F 44% 29.93 in 10.0 mi West 9.2 mph - N/A   Clear
12:15 PM 33.8 °F 22.5 °F 10.4 °F 38% 29.91 in 10.0 mi WNW 19.6 mph 25.3 mph N/A   Clear
12:35 PM 33.8 °F 21.9 °F 10.4 °F 38% 29.90 in 10.0 mi West 21.9 mph 33.4 mph N/A   Clear
1:15 PM 35.6 °F 26.6 °F 10.4 °F 35% 29.88 in 10.0 mi West 13.8 mph 28.8 mph N/A   Scattered Clouds
1:35 PM 35.6 °F 25.5 °F 12.2 °F 38% 29.87 in 10.0 mi WSW 17.3 mph 23.0 mph N/A   Scattered Clouds
1:55 PM 35.6 °F 24.0 °F 10.4 °F 35% 29.86 in 10.0 mi West 23.0 mph 28.8 mph N/A   Scattered Clouds
2:15 PM 33.8 °F 23.9 °F 8.6 °F 35% 29.84 in 10.0 mi WNW 15.0 mph 26.5 mph N/A   Scattered Clouds
2:35 PM 37.4 °F 27.5 °F 10.4 °F 33% 29.84 in 10.0 mi West 18.4 mph 26.5 mph N/A   Scattered Clouds
2:55 PM 35.6 °F 24.2 °F 8.6 °F 33% 29.82 in 10.0 mi WSW 21.9 mph 27.6 mph N/A   Scattered Clouds
3:15 PM 35.6 °F 25.5 °F 8.6 °F 33% 29.80 in 10.0 mi West 17.3 mph 25.3 mph N/A   Scattered Clouds
3:35 PM 39.2 °F 27.6 °F 10.4 °F 31% 29.79 in 10.0 mi West 28.8 mph 39.1 mph N/A   Scattered Clouds
3:55 PM 37.4 °F 26.9 °F 8.6 °F 30% 29.79 in 10.0 mi West 20.7 mph 35.7 mph N/A   Scattered Clouds
4:15 PM 35.6 °F 24.0 °F 6.8 °F 30% 29.78 in 10.0 mi West 23.0 mph 33.4 mph N/A   Clear
4:35 PM 35.6 °F 23.7 °F 8.6 °F 33% 29.77 in 10.0 mi West 24.2 mph 28.8 mph N/A   Clear
4:55 PM 35.6 °F 24.8 °F 8.6 °F 33% 29.77 in 10.0 mi West 19.6 mph 26.5 mph N/A   Scattered Clouds
5:15 PM 35.6 °F 25.9 °F 8.6 °F 33% 29.76 in 10.0 mi West 16.1 mph 26.5 mph N/A   Scattered Clouds
5:55 PM 35.6 °F 25.5 °F 8.6 °F 33% 29.75 in 10.0 mi West 17.3 mph 24.2 mph N/A   Scattered Clouds
6:15 PM 35.6 °F 26.2 °F 8.6 °F 33% 29.74 in 10.0 mi WSW 15.0 mph 23.0 mph N/A   Scattered Clouds
6:35 PM 35.6 °F 26.2 °F 8.6 °F 33% 29.75 in 10.0 mi West 15.0 mph 25.3 mph N/A   Scattered Clouds
6:55 PM 35.6 °F 27.1 °F 8.6 °F 33% 29.75 in 10.0 mi West 12.7 mph 18.4 mph N/A   Mostly Cloudy
7:35 PM 33.8 °F 23.5 °F 8.6 °F 35% 29.74 in 10.0 mi West 16.1 mph 21.9 mph N/A   Scattered Clouds
7:55 PM 33.8 °F 23.9 °F 8.6 °F 35% 29.74 in 10.0 mi West 15.0 mph 20.7 mph N/A   Scattered Clouds
7:57 PM 33.8 °F 25.3 °F 8.6 °F 35% 29.74 in 10.0 mi West 11.5 mph 20.7 mph N/A   Mostly Cloudy
8:15 PM 33.8 °F 24.3 °F 10.4 °F 38% 29.74 in 10.0 mi West 13.8 mph 21.9 mph N/A   Mostly Cloudy
8:35 PM 33.8 °F 23.5 °F 10.4 °F 38% 29.74 in 10.0 mi West 16.1 mph 27.6 mph N/A   Mostly Cloudy
8:55 PM 32.0 °F 23.0 °F 10.4 °F 41% 29.74 in 10.0 mi West 11.5 mph 21.9 mph N/A   Overcast
9:15 PM 32.0 °F 22.1 °F 12.2 °F 44% 29.74 in 10.0 mi WSW 13.8 mph 19.6 mph N/A   Overcast
9:35 PM 32.0 °F 23.0 °F 12.2 °F 44% 29.74 in 10.0 mi West 11.5 mph 19.6 mph N/A   Overcast
9:55 PM 30.2 °F 20.8 °F 17.6 °F 60% 29.74 in 10.0 mi WNW 11.5 mph 17.3 mph N/A   Mostly Cloudy
10:15 PM 28.4 °F 17.5 °F 21.2 °F 74% 29.74 in 10.0 mi NW 13.8 mph 18.4 mph N/A   Overcast
10:35 PM 26.6 °F 15.2 °F 23.0 °F 86% 29.74 in 10.0 mi WNW 13.8 mph 19.6 mph N/A   Overcast
10:55 PM 26.6 °F 14.3 °F 23.0 °F 86% 29.75 in 10.0 mi West 16.1 mph 20.7 mph N/A   Overcast
11:15 PM 24.8 °F 11.5 °F 24.8 °F 100% 29.74 in 1.5 mi West 17.3 mph 24.2 mph N/A Snow Light Snow
11:35 PM 24.8 °F 11.9 °F 24.8 °F 100% 29.74 in 0.8 mi West 16.1 mph - N/A   Overcast
11:55 PM 24.8 °F 11.1 °F 24.8 °F 100% 29.73 in 5.0 mi West 18.4 mph - N/A   Overcast